This demonstration page uses our WeatherBlox Daily Observations layout. Learn more.

Left ArrowRight Arrow

Hourly Observations for November 29, 2015

Temp ( °F °C ) Dew Point ( °F °C ) Humidity (%) Winds ( mph kmh ) Pressure ( in mb ) Visibility ( mi km ) Precip ( " mm )
12:53 am 00:53 Clear 30 -1.1 21 -6.1 69 69 Calm 30.19 1022 10 16 0.00 0.00
1:53 am 01:53 Clear 27 -2.8 20 -6.7 75 75 Calm 30.19 1022 10 16 0.00 0.00
2:53 am 02:53 Clear 27 -2.8 20 -6.7 75 75 N 3 6 30.19 1022 10 16 0.00 0.00
3:53 am 03:53 Clear 27 -2.8 19 -7.2 72 72 Calm 30.19 1022 10 16 0.00 0.00
4:53 am 04:53 Clear 26 -3.3 19 -7.2 75 75 Calm 30.20 1023 10 16 0.00 0.00
5:53 am 05:53 Clear 25 -3.9 18 -7.8 75 75 Calm 30.21 1023 10 16 0.00 0.00
6:53 am 06:53 Clear 24 -4.4 17 -8.3 75 75 Calm 30.23 1024 10 16 0.00 0.00
7:53 am 07:53 Sunny 27 -2.8 20 -6.7 75 75 Calm 30.24 1024 10 16 0.00 0.00
8:53 am 08:53 Sunny 33 0.6 23 -5 66 66 Calm 30.24 1024 10 16 0.00 0.00
9:53 am 09:53 Sunny 40 4.4 25 -3.9 55 55 Calm 30.24 1024 10 16 0.00 0.00
10:53 am 10:53 Sunny 48 8.9 26 -3.3 42 42 WSW 3 6 30.23 1024 10 16 0.00 0.00
11:53 am 11:53 Sunny 53 11.7 22 -5.6 30 30 Calm 30.21 1023 10 16 0.00 0.00
12:53 pm 12:53 Sunny 55 12.8 17 -8.3 22 22 Calm 30.18 1022 10 16 0.00 0.00
1:53 pm 13:53 Sunny 56 13.3 17 -8.3 22 22 Calm 30.17 1022 10 16 0.00 0.00
2:53 pm 14:53 Sunny 56 13.3 17 -8.3 22 22 Calm 30.16 1021 10 16 0.00 0.00
3:53 pm 15:53 Sunny 56 13.3 18 -7.8 22 22 S 3 6 30.17 1022 10 16 0.00 0.00
4:53 pm 16:53 Clear 50 10 18 -7.8 28 28 Calm 30.16 1022 10 16 0.00 0.00
5:53 pm 17:53 Clear 43 6.1 19 -7.2 38 38 Calm 30.18 1022 10 16 0.00 0.00
6:53 pm 18:53 Clear 39 3.9 21 -6.1 48 48 N 3 6 30.19 1022 10 16 0.00 0.00
7:53 pm 19:53 Clear 34 1.1 22 -5.6 61 61 NNE 7 11 30.19 1023 9 14 0.00 0.00
8:53 pm 20:53 Clear 32 0 21 -6.1 64 64 N 6 9 30.19 1023 8 13 0.00 0.00
9:53 pm 21:53 Clear 36 2.2 23 -5 59 59 NNW 8 13 30.21 1023 10 16 0.00 0.00
10:53 pm 22:53 Clear 33 0.6 23 -5 66 66 Calm 30.23 1024 10 16 0.00 0.00
11:53 pm 23:53 Clear 29 -1.7 21 -6.1 72 72 WNW 3 6 30.24 1024 10 16 0.00 0.00

Powered by AerisWeather